Location: ??????
(38.0131°N, 23.7723°E)
Time: 17:20:57
(UTC+00:00)

METEOR 2-5 DEB - Pass Details

Date: 19 August 2022
Orbit: 809 x 849 km, 81.2° (Epoch: 29 September)

Event Time Altitude Azimuth Distance (km) Brightness Sun altitude
Rises 18:21:45 0° 358° (N) 3,347 ? -13.3°
Reaches altitude 10° 18:24:17 10° 5° (N) 2,407 ? -13.8°
Maximum altitude 18:29:26 44° 76° (ENE) 1,117 ? -14.7°
Enters shadow 18:32:35 22° 137° (SE) 1,712 ? -15.2°
